This is the latest recevied weather packets stored in our database for station/object WSLA411. If no packets are shown the sender has not sent any weather packets the latest 1 day(s).
| Time | Temp. | Humidity | Pressure | Rain* | Wind** | Luminosity | Snow |
|---|---|---|---|---|---|---|---|
| 1778088396 | 15° C | 83% | 1020.2 hPa | 0 mm | - | 53 W/m² | - |
| 1778088336 | 14.44° C | 83% | 1020.2 hPa | 0 mm | - | 51 W/m² | - |
| 1778088261 | 14.44° C | 83% | 1020.2 hPa | 0 mm | - | 49 W/m² | - |
| 1778088201 | 14.44° C | 83% | 1020.2 hPa | 0 mm | - | 53 W/m² | - |
| 1778087877 | 14.44° C | 82% | 1020.1 hPa | 0 mm | - | 59 W/m² | - |
| 1778087556 | 14.44° C | 83% | 1020.2 hPa | 0 mm | - | 51 W/m² | - |
| 1778086878 | 14.44° C | 84% | 1020.1 hPa | 0 mm | - | 58 W/m² | - |
| 1778086595 | 14.44° C | 84% | 1020.3 hPa | 0 mm | - | 56 W/m² | - |
| 1778086355 | 14.44° C | 84% | 1020.3 hPa | 0 mm | - | 57 W/m² | - |
| 1778086115 | 14.44° C | 83% | 1020.3 hPa | 0 mm | - | 47 W/m² | - |
| 1778086055 | 14.44° C | 83% | 1020.2 hPa | 0 mm | - | 49 W/m² | - |
| 1778085727 | 14.44° C | 83% | 1020.2 hPa | 0 mm | - | 56 W/m² | - |
| 1778085546 | 14.44° C | 83% | 1020.1 hPa | 0 mm | - | 45 W/m² | - |
| 1778085292 | 14.44° C | 83% | 1020.2 hPa | 0 mm | - | 59 W/m² | - |
| 1778085232 | 14.44° C | 84% | 1020.1 hPa | 0 mm | - | 59 W/m² | - |
| 1778085052 | 13.89° C | 84% | 1020.2 hPa | 0 mm | - | 38 W/m² | - |
| 1778084811 | 13.89° C | 84% | 1020.3 hPa | 0 mm | - | 45 W/m² | - |
| 1778084571 | 13.89° C | 84% | 1020.1 hPa | 0 mm | - | 79 W/m² | - |
| 1778084451 | 13.89° C | 84% | 1020 hPa | 0 mm | - | 71 W/m² | - |
| 1778084331 | 13.89° C | 85% | 1020 hPa | 0 mm | - | 68 W/m² | - |
| 1778084270 | 13.89° C | 85% | 1020 hPa | 0 mm | - | 67 W/m² | - |
| 1778084091 | 13.89° C | 84% | 1020.1 hPa | 0 mm | - | 58 W/m² | - |
| 1778084031 | 13.89° C | 84% | 1020 hPa | 0 mm | - | 57 W/m² | - |
| 1778083971 | 13.89° C | 85% | 1020 hPa | 0 mm | - | 52 W/m² | - |
| 1778083491 | 13.89° C | 84% | 1020 hPa | 0 mm | - | 43 W/m² | - |
* Rain latest hour (hover to see other rain measurements)
** Current wind speed in m/s (hover to see current wind gust speed)